| time (UTC) | temp F | wind direction | speed MPH | gust MPH | rain 1hr in | rain 24hr in | rain mn in | humidity % | barometer mb |
| 20260510064534 | 52 | 197 | 0.0 | 1.0 | 0.00 | 0.35 | 0.00 | 93 | 1010.5 |
| 20260510063033 | 52 | 197 | 0.0 | 4.0 | 0.00 | 0.35 | 0.00 | 93 | 1010.1 |
| 20260510061531 | 52 | 176 | 3.0 | 5.0 | 0.00 | 0.35 | 0.00 | 93 | 1010.0 |
| 20260510060030 | 52 | 273 | 1.0 | 8.0 | 0.00 | 0.35 | 0.00 | 92 | 1009.9 |
| 20260510054529 | 53 | 192 | 1.0 | 4.0 | 0.00 | 0.35 | 0.00 | 92 | 1009.8 |
| 20260510053047 | 53 | 163 | 2.0 | 7.0 | 0.00 | 0.35 | 0.00 | 92 | 1009.6 |
| 20260510051527 | 53 | 174 | 3.0 | 7.0 | 0.00 | 0.35 | 0.00 | 92 | 1009.3 |
| 20260510050027 | 52 | 181 | 4.0 | 8.0 | 0.00 | 0.35 | 0.00 | 92 | 1009.4 |
| 20260510044526 | 53 | 186 | 4.0 | 9.0 | 0.00 | 0.35 | 0.00 | 92 | 1009.4 |
| 20260510043038 | 53 | 168 | 7.0 | 14.0 | 0.00 | 0.35 | 0.00 | 92 | 1009.6 |
| 20260510041526 | 53 | 207 | 2.0 | 8.0 | 0.00 | 0.35 | 0.00 | 92 | 1009.7 |
| 20260510040033 | 53 | 180 | 1.0 | 5.0 | 0.00 | 0.35 | 0.35 | 92 | 1009.6 |
| 20260510034519 | 53 | 159 | 4.0 | 6.0 | 0.00 | 0.35 | 0.35 | 92 | 1009.7 |
| 20260510033017 | 53 | 153 | 1.0 | 6.0 | 0.00 | 0.35 | 0.35 | 92 | 1009.7 |
| 20260510031522 | 53 | 161 | 1.0 | 9.0 | 0.00 | 0.35 | 0.35 | 91 | 1009.5 |
| 20260510030017 | 53 | 169 | 1.0 | 9.0 | 0.00 | 0.35 | 0.35 | 91 | 1009.6 |
| 20260510024517 | 53 | 155 | 0.0 | 7.0 | 0.00 | 0.35 | 0.35 | 91 | 1009.6 |
| 20260510023017 | 53 | 111 | 2.0 | 7.0 | 0.00 | 0.35 | 0.35 | 91 | 1009.7 |
| 20260510021530 | 53 | 156 | 2.0 | 5.0 | 0.00 | 0.35 | 0.35 | 91 | 1009.7 |
| 20260510020015 | 54 | 189 | 3.0 | 10.0 | 0.00 | 0.35 | 0.35 | 91 | 1009.7 |
| 20260510014516 | 53 | 194 | 4.0 | 10.0 | 0.00 | 0.35 | 0.35 | 91 | 1009.8 |
| 20260510013022 | 54 | 154 | 2.0 | 5.0 | 0.00 | 0.35 | 0.35 | 91 | 1009.4 |
| 20260510011513 | 54 | 168 | 4.0 | 6.0 | 0.00 | 0.35 | 0.35 | 91 | 1009.6 |
| 20260510010012 | 54 | 157 | 4.0 | 10.0 | 0.00 | 0.35 | 0.35 | 91 | 1009.6 |
| 20260510004517 | 54 | 184 | 3.0 | 9.0 | 0.00 | 0.35 | 0.35 | 90 | 1009.4 |
| 20260510003011 | 54 | 175 | 4.0 | 9.0 | 0.00 | 0.35 | 0.35 | 90 | 1009.3 |
| 20260510001512 | 54 | 160 | 2.0 | 6.0 | 0.00 | 0.35 | 0.35 | 90 | 1009.3 |
| 20260510000011 | 54 | 169 | 0.0 | 5.0 | 0.00 | 0.35 | 0.35 | 90 | 1008.9 |
| 20260509234511 | 54 | 173 | 1.0 | 6.0 | 0.00 | 0.35 | 0.35 | 90 | 1008.7 |
| 20260509233010 | 54 | 165 | 3.0 | 7.0 | 0.00 | 0.35 | 0.35 | 90 | 1008.8 |
| 20260509231509 | 54 | 155 | 4.0 | 13.0 | 0.00 | 0.35 | 0.35 | 90 | 1008.5 |
| 20260509230010 | 54 | 128 | 4.0 | 10.0 | 0.00 | 0.35 | 0.35 | 90 | 1008.4 |
| 20260509224509 | 54 | 140 | 3.0 | 9.0 | 0.00 | 0.35 | 0.35 | 91 | 1008.4 |
| 20260509223011 | 54 | 97 | 3.0 | 9.0 | 0.00 | 0.35 | 0.35 | 91 | 1008.5 |
| 20260509221506 | 54 | 164 | 4.0 | 8.0 | 0.00 | 0.35 | 0.35 | 92 | 1008.6 |
| 20260509220015 | 54 | 130 | 1.0 | 7.0 | 0.00 | 0.35 | 0.35 | 93 | 1008.6 |
| 20260509214504 | 54 | 143 | 3.0 | 8.0 | 0.00 | 0.35 | 0.35 | 93 | 1008.9 |
| 20260509213003 | 53 | 164 | 4.0 | 9.0 | 0.00 | 0.35 | 0.35 | 93 | 1008.9 |
| 20260509211501 | 53 | 142 | 1.0 | 6.0 | 0.00 | 0.35 | 0.35 | 94 | 1008.9 |
| 20260509210109 | 53 | 125 | 1.0 | 7.0 | 0.00 | 0.35 | 0.35 | 94 | 1009.0 |
| 20260509204558 | 52 | 175 | 3.0 | 10.0 | 0.00 | 0.35 | 0.35 | 95 | 1009.2 |
| 20260509203115 | 52 | 177 | 5.0 | 9.0 | 0.01 | 0.35 | 0.35 | 95 | 1009.3 |
| 20260509201557 | 51 | 190 | 3.0 | 5.0 | 0.01 | 0.35 | 0.35 | 95 | 1009.5 |
| 20260509200055 | 51 | 144 | 1.0 | 5.0 | 0.01 | 0.35 | 0.35 | 95 | 1009.7 |
| 20260509194552 | 50 | 157 | 0.0 | 7.0 | 0.01 | 0.35 | 0.35 | 95 | 1009.9 |
| 20260509193056 | 50 | 177 | 0.0 | 5.0 | 0.00 | 0.34 | 0.34 | 94 | 1010.1 |
| 20260509191558 | 50 | 180 | 1.0 | 6.0 | 0.00 | 0.34 | 0.34 | 94 | 1010.3 |
| 20260509190053 | 50 | 165 | 4.0 | 8.0 | 0.01 | 0.34 | 0.34 | 94 | 1010.4 |
| 20260509184556 | 49 | 181 | 2.0 | 9.0 | 0.01 | 0.34 | 0.34 | 94 | 1010.4 |
| 20260509183052 | 49 | 155 | 5.0 | 9.0 | 0.02 | 0.34 | 0.34 | 94 | 1010.5 |
| 20260509181542 | 49 | 169 | 0.0 | 7.0 | 0.02 | 0.34 | 0.34 | 94 | 1010.7 |
| 20260509180042 | 48 | 146 | 3.0 | 6.0 | 0.02 | 0.33 | 0.33 | 94 | 1010.8 |
| 20260509174559 | 48 | 148 | 2.0 | 7.0 | 0.03 | 0.33 | 0.33 | 94 | 1010.8 |
| 20260509173048 | 48 | 153 | 3.0 | 10.0 | 0.03 | 0.32 | 0.32 | 94 | 1010.9 |
| 20260509171538 | 48 | 169 | 3.0 | 7.0 | 0.04 | 0.32 | 0.32 | 94 | 1011.1 |
| 20260509170038 | 48 | 157 | 3.0 | 6.0 | 0.04 | 0.31 | 0.31 | 94 | 1011.1 |
| 20260509164536 | 48 | 134 | 3.0 | 8.0 | 0.03 | 0.30 | 0.30 | 94 | 1011.2 |
| 20260509163040 | 47 | 153 | 1.0 | 9.0 | 0.04 | 0.28 | 0.28 | 94 | 1011.4 |
| 20260509161532 | 47 | 159 | 3.0 | 7.0 | 0.04 | 0.28 | 0.28 | 94 | 1011.7 |
| 20260509160031 | 46 | 130 | 4.0 | 8.0 | 0.06 | 0.27 | 0.27 | 94 | 1011.9 |
| 20260509154529 | 46 | 118 | 1.0 | 9.0 | 0.06 | 0.26 | 0.26 | 94 | 1012.4 |
| 20260509153039 | 46 | 140 | 2.0 | 7.0 | 0.07 | 0.25 | 0.25 | 94 | 1012.6 |
| 20260509151526 | 46 | 150 | 3.0 | 9.0 | 0.08 | 0.24 | 0.24 | 94 | 1012.8 |
| 20260509150026 | 46 | 130 | 2.0 | 7.0 | 0.08 | 0.21 | 0.21 | 94 | 1012.8 |
| 20260509144531 | 46 | 181 | 1.0 | 9.0 | 0.08 | 0.20 | 0.20 | 94 | 1012.8 |
| 20260509143024 | 45 | 112 | 2.0 | 8.0 | 0.08 | 0.18 | 0.18 | 94 | 1012.8 |
| 20260509141523 | 45 | 129 | 2.0 | 6.0 | 0.08 | 0.16 | 0.16 | 93 | 1012.8 |
| 20260509140022 | 45 | 133 | 1.0 | 6.0 | 0.07 | 0.13 | 0.13 | 93 | 1012.8 |
| 20260509134522 | 45 | 139 | 0.0 | 6.0 | 0.07 | 0.12 | 0.12 | 93 | 1012.6 |
| 20260509133021 | 45 | 142 | 0.0 | 5.0 | 0.06 | 0.10 | 0.10 | 93 | 1012.7 |
| 20260509131519 | 45 | 171 | 0.0 | 2.0 | 0.06 | 0.08 | 0.08 | 92 | 1012.8 |
| 20260509130030 | 45 | 148 | 0.0 | 4.0 | 0.04 | 0.06 | 0.06 | 92 | 1012.8 |
| 20260509124520 | 45 | 119 | 0.0 | 1.0 | 0.04 | 0.05 | 0.05 | 91 | 1012.8 |
| 20260509123018 | 44 | 169 | 1.0 | 4.0 | 0.04 | 0.04 | 0.04 | 91 | 1012.9 |
| 20260509121523 | 44 | 169 | 0.0 | 2.0 | 0.02 | 0.02 | 0.02 | 90 | 1012.9 |
| 20260509120014 | 44 | 134 | 1.0 | 5.0 | 0.02 | 0.02 | 0.02 | 90 | 1013.0 |
| 20260509114514 | 44 | 143 | 2.0 | 7.0 | 0.01 | 0.01 | 0.01 | 88 | 1013.2 |
| 20260509113014 | 44 | 164 | 5.0 | 9.0 | 0.00 | 0.00 | 0.00 | 87 | 1013.1 |
| 20260509111512 | 43 | 184 | 3.0 | 5.0 | 0.00 | 0.00 | 0.00 | 86 | 1013.1 |
| 20260509110012 | 43 | 163 | 0.0 | 2.0 | 0.00 | 0.00 | 0.00 | 86 | 1012.9 |
| 20260509104611 | 43 | 245 | 0.0 | 1.0 | 0.00 | 0.00 | 0.00 | 86 | 1012.9 |
| 20260509103010 | 42 | 245 | 0.0 | 0.0 | 0.00 | 0.00 | 0.00 | 87 | 1012.9 |
| 20260509101511 | 42 | 245 | 0.0 | 0.0 | 0.00 | 0.00 | 0.00 | 87 | 1013.1 |
| 20260509100007 | 41 | 245 | 0.0 | 1.0 | 0.00 | 0.00 | 0.00 | 87 | 1013.1 |
| 20260509094508 | 41 | 245 | 0.0 | 0.0 | 0.00 | 0.00 | 0.00 | 86 | 1012.9 |
| 20260509093007 | 41 | 245 | 0.0 | 0.0 | 0.00 | 0.00 | 0.00 | 86 | 1013.1 |
| 20260509091509 | 41 | 245 | 0.0 | 1.0 | 0.00 | 0.00 | 0.00 | 85 | 1013.4 |
| 20260509090006 | 41 | 245 | 0.0 | 0.0 | 0.00 | 0.00 | 0.00 | 84 | 1013.3 |
| 20260509084505 | 42 | 245 | 0.0 | 1.0 | 0.00 | 0.00 | 0.00 | 85 | 1013.4 |
| 20260509083017 | 41 | 245 | 0.0 | 1.0 | 0.00 | 0.00 | 0.00 | 87 | 1013.3 |
| 20260509081507 | 40 | 245 | 0.0 | 0.0 | 0.00 | 0.00 | 0.00 | 86 | 1013.1 |
| 20260509080005 | 40 | 245 | 0.0 | 0.0 | 0.00 | 0.00 | 0.00 | 84 | 1012.9 |
| 20260509074503 | 41 | 245 | 0.0 | 1.0 | 0.00 | 0.00 | 0.00 | 84 | 1012.8 |
| 20260509073002 | 41 | 245 | 0.0 | 1.0 | 0.00 | 0.00 | 0.00 | 86 | 1012.8 |
| 20260509071606 | 40 | 245 | 0.0 | 0.0 | 0.00 | 0.00 | 0.00 | 83 | 1012.9 |
| 20260509070058 | 42 | 360 | 0.0 | 1.0 | 0.00 | 0.00 | 0.00 | 84 | 1012.8 |